,,,PA_Meas_PMT16A,,PR_Meas_QMR101_102,,RH_Meas_QMH101,,SR_Meas_QMS101,,TA_Meas_QMH101,,GenWind,,GenWind,
date,time,status,PA,status,PR,status,RH,status,SR,status,TA,status,DirAvg,status,SpdAvg,
2012-08-24, 00:00:04,VALID,1009.43,VALID,0,VALID,104,VALID,0,VALID,24.004,VALID,73,VALID,0,
2012-08-24, 00:01:04,VALID,1009.46,VALID,0,VALID,104,VALID,0,VALID,24.0058,VALID,73,VALID,0,
2012-08-24, 00:02:04,VALID,1009.47,VALID,0,VALID,104,VALID,0,VALID,23.965,VALID,73,VALID,0,
2012-08-24, 00:03:04,VALID,1009.43,VALID,0,VALID,104,VALID,0,VALID,23.9455,VALID,73,VALID,0,
2012-08-24, 00:04:04,VALID,1009.46,VALID,0,VALID,104,VALID,0,VALID,23.9455,VALID,73,VALID,0,
2012-08-24, 00:05:04,VALID,1009.45,VALID,0,VALID,104,VALID,0,VALID,23.9473,VALID,73,VALID,0,
2012-08-24, 00:06:04,VALID,1009.44,VALID,0,VALID,104,VALID,0,VALID,23.9278,VALID,73,VALID,0,
2012-08-24, 00:07:04,VALID,1009.44,VALID,0,VALID,104,VALID,0,VALID,23.9278,VALID,73,VALID,0,
2012-08-24, 00:08:04,VALID,1009.42,VALID,0,VALID,104,VALID,0.112112,VALID,23.9278,VALID,73,VALID,0,
2012-08-24, 00:09:04,VALID,1009.39,VALID,0,VALID,104,VALID,0,VALID,23.9278,VALID,73,VALID,0,
2012-08-24, 00:10:04,VALID,1009.37,VALID,0,VALID,104,VALID,0,VALID,23.9278,VALID,73,VALID,0,
2012-08-24, 00:11:04,VALID,1009.35,VALID,0,VALID,104,VALID,0,VALID,23.9278,VALID,73,VALID,0,
2012-08-24, 00:12:04,VALID,1009.35,VALID,0,VALID,104,VALID,0,VALID,23.9278,VALID,73,VALID,0,
2012-08-24, 00:13:04,VALID,1009.35,VALID,0,VALID,104,VALID,0,VALID,23.926,VALID,73,VALID,0,
2012-08-24, 00:14:04,VALID,1009.35,VALID,0,VALID,104,VALID,0,VALID,23.9473,VALID,73,VALID,0,
2012-08-24, 00:15:04,VALID,1009.36,VALID,0,VALID,104,VALID,0,VALID,23.9668,VALID,73,VALID,0,
2012-08-24, 00:16:04,VALID,1009.35,VALID,0,VALID,104,VALID,0,VALID,23.9668,VALID,73,VALID,0,
2012-08-24, 00:17:04,VALID,1009.34,VALID,0,VALID,104,VALID,0,VALID,23.9668,VALID,73,VALID,0,
2012-08-24, 00:18:04,VALID,1009.32,VALID,0,VALID,104,VALID,0,VALID,23.9863,VALID,73,VALID,0,
2012-08-24, 00:19:04,VALID,1009.3,VALID,0,VALID,104,VALID,0,VALID,23.9863,VALID,73,VALID,0,
2012-08-24, 00:20:04,VALID,1009.27,VALID,0,VALID,104,VALID,0,VALID,23.9863,VALID,73,VALID,0,
2012-08-24, 00:21:04,VALID,1009.21,VALID,0,VALID,104,VALID,0,VALID,23.9863,VALID,73,VALID,0,
2012-08-24, 00:22:04,VALID,1009.18,VALID,0,VALID,104,VALID,0.112112,VALID,24.0058,VALID,73,VALID,0,
2012-08-24, 00:23:04,VALID,1009.15,VALID,0,VALID,104,VALID,0,VALID,24.0058,VALID,73,VALID,0,
2012-08-24, 00:24:04,VALID,1009.13,VALID,0,VALID,104,VALID,0,VALID,24.0058,VALID,73,VALID,0,
2012-08-24, 00:25:04,VALID,1009.13,VALID,0,VALID,104,VALID,0,VALID,24.0058,VALID,73,VALID,0,
2012-08-24, 00:26:04,VALID,1009.14,VALID,0,VALID,104,VALID,0,VALID,23.9455,VALID,73,VALID,0,
2012-08-24, 00:27:04,VALID,1009.17,VALID,0,VALID,104,VALID,0,VALID,23.9278,VALID,73,VALID,0,
2012-08-24, 00:28:04,VALID,1009.22,VALID,0,VALID,104,VALID,0,VALID,23.9278,VALID,73,VALID,0,
2012-08-24, 00:29:04,VALID,1009.22,VALID,0,VALID,104,VALID,0.112112,VALID,23.8676,VALID,73,VALID,0,
2012-08-24, 00:30:04,VALID,1009.25,VALID,0,VALID,104,VALID,0,VALID,23.8694,VALID,73,VALID,0,
2012-08-24, 00:31:04,VALID,1009.23,VALID,0,VALID,104,VALID,0,VALID,23.8304,VALID,73,VALID,0,
2012-08-24, 00:32:04,VALID,1009.22,VALID,0,VALID,104,VALID,0,VALID,23.8109,VALID,73,VALID,0,
2012-08-24, 00:33:04,VALID,1009.21,VALID,0,VALID,104,VALID,0,VALID,23.8109,VALID,73,VALID,0,
2012-08-24, 00:34:04,VALID,1009.17,VALID,0,VALID,104,VALID,0,VALID,23.8304,VALID,73,VALID,0,
2012-08-24, 00:35:04,VALID,1009.15,VALID,0,VALID,104,VALID,0.112112,VALID,23.8304,VALID,73,VALID,0,
2012-08-24, 00:36:04,VALID,1009.14,VALID,0,VALID,104,VALID,0,VALID,23.8304,VALID,73,VALID,0,
2012-08-24, 00:37:04,VALID,1009.15,VALID,0,VALID,104,VALID,0,VALID,23.8304,VALID,73,VALID,0,
2012-08-24, 00:38:04,VALID,1009.14,VALID,0,VALID,104,VALID,0,VALID,23.8109,VALID,73,VALID,0,
2012-08-24, 00:39:04,VALID,1009.14,VALID,0,VALID,104,VALID,0.112112,VALID,23.8304,VALID,73,VALID,0,
2012-08-24, 00:40:04,VALID,1009.15,VALID,0,VALID,104,VALID,0.112112,VALID,23.8694,VALID,73,VALID,0,
2012-08-24, 00:41:04,VALID,1009.14,VALID,0,VALID,104,VALID,0,VALID,23.9084,VALID,73,VALID,0,
2012-08-24, 00:42:04,VALID,1009.11,VALID,0,VALID,104,VALID,0,VALID,23.9278,VALID,73,VALID,0,
2012-08-24, 00:43:04,VALID,1009.11,VALID,0,VALID,104,VALID,0,VALID,23.9278,VALID,73,VALID,0,
2012-08-24, 00:44:04,VALID,1009.11,VALID,0,VALID,104,VALID,0,VALID,23.9473,VALID,73,VALID,0,
2012-08-24, 00:45:04,VALID,1009.1,VALID,0,VALID,104,VALID,0,VALID,23.9455,VALID,73,VALID,0,
2012-08-24, 00:46:04,VALID,1009.08,VALID,0,VALID,104,VALID,0,VALID,23.9668,VALID,73,VALID,0,
2012-08-24, 00:47:04,VALID,1009.06,VALID,0,VALID,104,VALID,0,VALID,23.9863,VALID,73,VALID,0,
2012-08-24, 00:48:04,VALID,1009.03,VALID,0,VALID,104,VALID,0,VALID,23.9863,VALID,73,VALID,0,
2012-08-24, 00:49:04,VALID,1009.04,VALID,0,VALID,104,VALID,0,VALID,24.0058,VALID,73,VALID,0,
2012-08-24, 00:50:04,VALID,1009.03,VALID,0,VALID,104,VALID,0,VALID,24.0253,VALID,73,VALID,0,
2012-08-24, 00:51:04,VALID,1009,VALID,0,VALID,104,VALID,0,VALID,24.004,VALID,73,VALID,0,
2012-08-24, 00:52:04,VALID,1009.01,VALID,0,VALID,104,VALID,0,VALID,24.0253,VALID,73,VALID,0,
2012-08-24, 00:53:04,VALID,1009.01,VALID,0,VALID,104,VALID,0,VALID,24.0448,VALID,73,VALID,0,
2012-08-24, 00:54:04,VALID,1009.01,VALID,0,VALID,104,VALID,0,VALID,24.0448,VALID,73,VALID,0,
2012-08-24, 00:55:04,VALID,1009.02,VALID,0,VALID,104,VALID,0,VALID,24.0253,VALID,73,VALID,0,
2012-08-24, 00:56:04,VALID,1009,VALID,0,VALID,104,VALID,0,VALID,24.0466,VALID,73,VALID,0,
2012-08-24, 00:57:04,VALID,1008.97,VALID,0,VALID,104,VALID,0,VALID,24.0448,VALID,73,VALID,0,
2012-08-24, 00:58:04,VALID,1008.98,VALID,0,VALID,104,VALID,0,VALID,24.0253,VALID,73,VALID,0,
2012-08-24, 00:59:04,VALID,1008.97,VALID,0,VALID,104,VALID,0,VALID,24.0448,VALID,73,VALID,0,
2012-08-24, 01:00:04,VALID,1008.97,VALID,0,VALID,104,VALID,0,VALID,24.0643,VALID,73,VALID,0,
2012-08-24, 01:01:04,VALID,1008.93,VALID,0,VALID,104,VALID,0,VALID,24.0643,VALID,73,VALID,0,
2012-08-24, 01:02:04,VALID,1008.95,VALID,0,VALID,104,VALID,0,VALID,24.0856,VALID,73,VALID,0,
2012-08-24, 01:03:04,VALID,1008.92,VALID,0,VALID,104,VALID,0,VALID,24.0448,VALID,73,VALID,0,
2012-08-24, 01:04:04,VALID,1008.95,VALID,0,VALID,104,VALID,0,VALID,24.0253,VALID,73,VALID,0,
2012-08-24, 01:05:04,VALID,1008.95,VALID,0,VALID,104,VALID,0.112112,VALID,24.0058,VALID,73,VALID,0,
2012-08-24, 01:06:04,VALID,1008.93,VALID,0,VALID,104,VALID,0,VALID,23.9863,VALID,73,VALID,0,
2012-08-24, 01:07:04,VALID,1008.96,VALID,0,VALID,104,VALID,0,VALID,23.9668,VALID,73,VALID,0,
2012-08-24, 01:08:04,VALID,1008.99,VALID,0,VALID,104,VALID,0,VALID,23.8871,VALID,73,VALID,0,
2012-08-24, 01:09:04,VALID,1009.02,VALID,0,VALID,104,VALID,0,VALID,23.8676,VALID,73,VALID,0,
2012-08-24, 01:10:04,VALID,1009.04,VALID,0,VALID,104,VALID,0,VALID,23.8481,VALID,73,VALID,0,
2012-08-24, 01:11:04,VALID,1009.06,VALID,0,VALID,104,VALID,0,VALID,23.8109,VALID,73,VALID,0,
2012-08-24, 01:12:04,VALID,1009.07,VALID,0,VALID,104,VALID,0,VALID,23.772,VALID,73,VALID,0,
2012-08-24, 01:13:04,VALID,1009.08,VALID,0,VALID,104,VALID,0,VALID,23.772,VALID,73,VALID,0,
2012-08-24, 01:14:04,VALID,1009.08,VALID,0,VALID,104,VALID,0,VALID,23.733,VALID,73,VALID,0,
2012-08-24, 01:15:04,VALID,1009.08,VALID,0,VALID,104,VALID,0.112112,VALID,23.7135,VALID,73,VALID,0,
2012-08-24, 01:16:04,VALID,1009.06,VALID,0,VALID,104,VALID,0,VALID,23.7135,VALID,73,VALID,0,
2012-08-24, 01:17:04,VALID,1009.02,VALID,0,VALID,104,VALID,0,VALID,23.733,VALID,73,VALID,0,
2012-08-24, 01:18:04,VALID,1009.02,VALID,0,VALID,104,VALID,0,VALID,23.733,VALID,73,VALID,0,
2012-08-24, 01:19:04,VALID,1008.99,VALID,0,VALID,104,VALID,0,VALID,23.7312,VALID,73,VALID,0,
2012-08-24, 01:20:04,VALID,1008.99,VALID,0,VALID,104,VALID,0,VALID,23.7525,VALID,73,VALID,0,
2012-08-24, 01:21:04,VALID,1009.01,VALID,0,VALID,104,VALID,0.112112,VALID,23.7312,VALID,73,VALID,0,
2012-08-24, 01:22:04,VALID,1008.98,VALID,0,VALID,104,VALID,0,VALID,23.7135,VALID,73,VALID,0,
2012-08-24, 01:23:04,VALID,1008.98,VALID,0,VALID,104,VALID,0,VALID,23.7135,VALID,73,VALID,0,
2012-08-24, 01:24:04,VALID,1008.98,VALID,0,VALID,104,VALID,0,VALID,23.6727,VALID,73,VALID,0,
2012-08-24, 01:25:04,VALID,1008.96,VALID,0,VALID,104,VALID,0,VALID,23.655,VALID,73,VALID,0,
2012-08-24, 01:26:04,VALID,1008.95,VALID,0,VALID,104,VALID,0.112112,VALID,23.6745,VALID,73,VALID,0,
2012-08-24, 01:27:04,VALID,1008.94,VALID,0,VALID,104,VALID,0.112112,VALID,23.6356,VALID,73,VALID,0,
2012-08-24, 01:28:04,VALID,1008.93,VALID,0,VALID,104,VALID,0,VALID,23.6161,VALID,73,VALID,0,
2012-08-24, 01:29:04,VALID,1008.94,VALID,0,VALID,104,VALID,0.112112,VALID,23.5558,VALID,73,VALID,0,
2012-08-24, 01:30:04,VALID,1008.95,VALID,0,VALID,104,VALID,0,VALID,23.5576,VALID,73,VALID,0,
2012-08-24, 01:31:04,VALID,1008.98,VALID,0,VALID,104,VALID,0,VALID,23.5186,VALID,73,VALID,0,
2012-08-24, 01:32:04,VALID,1008.98,VALID,0,VALID,104,VALID,0.112112,VALID,23.4779,VALID,73,VALID,0,
2012-08-24, 01:33:04,VALID,1009.02,VALID,0,VALID,104,VALID,0,VALID,23.4584,VALID,73,VALID,0,
2012-08-24, 01:34:04,VALID,1009.03,VALID,0,VALID,104,VALID,0,VALID,23.4797,VALID,73,VALID,0,
2012-08-24, 01:35:04,VALID,1009.02,VALID,0,VALID,104,VALID,0.112112,VALID,23.4389,VALID,73,VALID,0,
2012-08-24, 01:36:04,VALID,1009.02,VALID,0,VALID,104,VALID,0,VALID,23.4602,VALID,73,VALID,0,
2012-08-24, 01:37:04,VALID,1009.05,VALID,0,VALID,104,VALID,0,VALID,23.4407,VALID,73,VALID,0,
2012-08-24, 01:38:04,VALID,1009.04,VALID,0,VALID,104,VALID,0.112112,VALID,23.4407,VALID,73,VALID,0,
2012-08-24, 01:39:04,VALID,1009.04,VALID,0,VALID,104,VALID,0.112112,VALID,23.4017,VALID,73,VALID,0,
2012-08-24, 01:40:04,VALID,1009.04,VALID,0,VALID,104,VALID,0,VALID,23.4017,VALID,73,VALID,0,
2012-08-24, 01:41:04,VALID,1009.04,VALID,0,VALID,104,VALID,0,VALID,23.3823,VALID,73,VALID,0,
2012-08-24, 01:42:04,VALID,1009.05,VALID,0,VALID,104,VALID,0.112112,VALID,23.3823,VALID,73,VALID,0,
2012-08-24, 01:43:04,VALID,1009.03,VALID,0,VALID,104,VALID,0,VALID,23.3823,VALID,73,VALID,0,
2012-08-24, 01:44:04,VALID,1009.03,VALID,0,VALID,104,VALID,0,VALID,23.3415,VALID,73,VALID,0,
2012-08-24, 01:45:04,VALID,1009.05,VALID,0,VALID,104,VALID,0,VALID,23.3628,VALID,73,VALID,0,
2012-08-24, 01:46:04,VALID,1009.02,VALID,0,VALID,104,VALID,0,VALID,23.3433,VALID,73,VALID,0,
2012-08-24, 01:47:04,VALID,1009.03,VALID,0,VALID,104,VALID,0.112112,VALID,23.3433,VALID,73,VALID,0,
2012-08-24, 01:48:04,VALID,1009.01,VALID,0,VALID,104,VALID,0,VALID,23.3628,VALID,73,VALID,0,
2012-08-24, 01:49:04,VALID,1008.98,VALID,0,VALID,104,VALID,0,VALID,23.4017,VALID,57,VALID,0,
2012-08-24, 01:50:04,VALID,1008.95,VALID,0,VALID,104,VALID,0.112112,VALID,23.4407,VALID,57,VALID,0,
2012-08-24, 01:51:04,VALID,1008.91,VALID,0,VALID,104,VALID,0.112112,VALID,23.4389,VALID,57,VALID,0,
2012-08-24, 01:52:04,VALID,1008.91,VALID,0,VALID,104,VALID,0,VALID,23.4584,VALID,57,VALID,0,
2012-08-24, 01:53:04,VALID,1008.87,VALID,0,VALID,104,VALID,0.112112,VALID,23.4797,VALID,56,VALID,0,
2012-08-24, 01:54:04,VALID,1008.84,VALID,0,VALID,104,VALID,0.112112,VALID,23.4584,VALID,56,VALID,0,
2012-08-24, 01:55:04,VALID,1008.83,VALID,0,VALID,104,VALID,0,VALID,23.4779,VALID,56,VALID,0,
2012-08-24, 01:56:04,VALID,1008.81,VALID,0,VALID,104,VALID,0.112112,VALID,23.5186,VALID,56,VALID,0,
2012-08-24, 01:57:04,VALID,1008.81,VALID,0,VALID,104,VALID,0.112112,VALID,23.5381,VALID,56,VALID,0,
2012-08-24, 01:58:04,VALID,1008.79,VALID,0,VALID,104,VALID,0,VALID,23.5186,VALID,56,VALID,0,
2012-08-24, 01:59:04,VALID,1008.8,VALID,0,VALID,104,VALID,0,VALID,23.4797,VALID,56,VALID,0,
2012-08-24, 02:00:04,VALID,1008.82,VALID,0,VALID,104,VALID,0.112112,VALID,23.4602,VALID,56,VALID,0,
2012-08-24, 02:01:04,VALID,1008.82,VALID,0,VALID,104,VALID,0,VALID,23.4017,VALID,56,VALID,0,
2012-08-24, 02:02:04,VALID,1008.85,VALID,0,VALID,104,VALID,0.112112,VALID,23.3628,VALID,56,VALID,0,
2012-08-24, 02:03:04,VALID,1008.82,VALID,0,VALID,104,VALID,0,VALID,23.322,VALID,56,VALID,0,
2012-08-24, 02:04:04,VALID,1008.79,VALID,0,VALID,104,VALID,0,VALID,23.3043,VALID,56,VALID,0,
2012-08-24, 02:05:04,VALID,1008.78,VALID,0,VALID,104,VALID,0.112112,VALID,23.3043,VALID,56,VALID,0,
2012-08-24, 02:06:04,VALID,1008.79,VALID,0,VALID,104,VALID,0,VALID,23.2848,VALID,56,VALID,0,
2012-08-24, 02:07:04,VALID,1008.76,VALID,0,VALID,104,VALID,0,VALID,23.2654,VALID,56,VALID,0,
2012-08-24, 02:08:04,VALID,1008.77,VALID,0,VALID,104,VALID,0,VALID,23.2459,VALID,56,VALID,0,
2012-08-24, 02:09:04,VALID,1008.75,VALID,0,VALID,104,VALID,0,VALID,23.2264,VALID,56,VALID,0,
2012-08-24, 02:10:04,VALID,1008.77,VALID,0,VALID,104,VALID,0,VALID,23.2459,VALID,56,VALID,0,
2012-08-24, 02:11:04,VALID,1008.8,VALID,0,VALID,104,VALID,0,VALID,23.2459,VALID,56,VALID,0,
2012-08-24, 02:12:04,VALID,1008.81,VALID,0,VALID,104,VALID,0.112112,VALID,23.2246,VALID,56,VALID,0,
2012-08-24, 02:13:04,VALID,1008.82,VALID,0,VALID,104,VALID,0,VALID,23.2264,VALID,56,VALID,0,
2012-08-24, 02:14:04,VALID,1008.84,VALID,0,VALID,104,VALID,0,VALID,23.1857,VALID,56,VALID,0,
2012-08-24, 02:15:04,VALID,1008.87,VALID,0,VALID,104,VALID,0,VALID,23.1874,VALID,56,VALID,0,
2012-08-24, 02:16:04,VALID,1008.9,VALID,0,VALID,104,VALID,0,VALID,23.1874,VALID,56,VALID,0,
2012-08-24, 02:17:04,VALID,1008.93,VALID,0,VALID,104,VALID,0.112112,VALID,23.1662,VALID,56,VALID,0,
2012-08-24, 02:18:04,VALID,1008.94,VALID,0,VALID,104,VALID,0,VALID,23.1679,VALID,56,VALID,0,
2012-08-24, 02:19:04,VALID,1008.95,VALID,0,VALID,104,VALID,0,VALID,23.1272,VALID,56,VALID,0,
2012-08-24, 02:20:04,VALID,1008.94,VALID,0,VALID,104,VALID,0.112112,VALID,23.129,VALID,56,VALID,0,
2012-08-24, 02:21:04,VALID,1008.93,VALID,0,VALID,104,VALID,0,VALID,23.1095,VALID,56,VALID,0,
2012-08-24, 02:22:04,VALID,1008.93,VALID,0,VALID,104,VALID,0,VALID,23.0883,VALID,56,VALID,0,
2012-08-24, 02:23:04,VALID,1008.89,VALID,0,VALID,104,VALID,0,VALID,23.129,VALID,56,VALID,0,
2012-08-24, 02:24:04,VALID,1008.89,VALID,0,VALID,104,VALID,0.112112,VALID,23.0883,VALID,56,VALID,0,
2012-08-24, 02:25:04,VALID,1008.91,VALID,0,VALID,104,VALID,0.112112,VALID,23.0883,VALID,56,VALID,0,
2012-08-24, 02:26:04,VALID,1008.9,VALID,0,VALID,104,VALID,0,VALID,23.0688,VALID,56,VALID,0,
2012-08-24, 02:27:04,VALID,1008.9,VALID,0,VALID,104,VALID,0.112112,VALID,23.09,VALID,56,VALID,0,
2012-08-24, 02:28:04,VALID,1008.89,VALID,0,VALID,104,VALID,0,VALID,23.0705,VALID,56,VALID,0,
2012-08-24, 02:29:04,VALID,1008.88,VALID,0,VALID,104,VALID,0,VALID,23.0493,VALID,56,VALID,0,
2012-08-24, 02:30:04,VALID,1008.88,VALID,0,VALID,104,VALID,0.112112,VALID,23.0493,VALID,56,VALID,0,
2012-08-24, 02:31:04,VALID,1008.9,VALID,0,VALID,104,VALID,0,VALID,23.0316,VALID,56,VALID,0,
2012-08-24, 02:32:04,VALID,1008.88,VALID,0,VALID,104,VALID,0,VALID,23.0316,VALID,56,VALID,0,
2012-08-24, 02:33:04,VALID,1008.88,VALID,0,VALID,104,VALID,0,VALID,23.0333,VALID,56,VALID,0,
2012-08-24, 02:34:05,VALID,1008.89,VALID,0,VALID,104,VALID,0,VALID,23.0138,VALID,56,VALID,0,
2012-08-24, 02:35:05,VALID,1008.9,VALID,0,VALID,104,VALID,0,VALID,23.0138,VALID,56,VALID,0,
2012-08-24, 02:36:05,VALID,1008.87,VALID,0,VALID,104,VALID,0,VALID,22.9731,VALID,56,VALID,0,
2012-08-24, 02:37:05,VALID,1008.86,VALID,0,VALID,104,VALID,0,VALID,22.9536,VALID,56,VALID,0,
2012-08-24, 02:38:05,VALID,1008.85,VALID,0,VALID,104,VALID,0,VALID,22.9536,VALID,56,VALID,0,
2012-08-24, 02:39:05,VALID,1008.83,VALID,0,VALID,104,VALID,0,VALID,22.9342,VALID,56,VALID,0,
2012-08-24, 02:40:05,VALID,1008.8,VALID,0,VALID,104,VALID,0,VALID,22.9554,VALID,56,VALID,0,
2012-08-24, 02:41:05,VALID,1008.79,VALID,0,VALID,104,VALID,0,VALID,22.9342,VALID,56,VALID,0,
2012-08-24, 02:42:05,VALID,1008.77,VALID,0,VALID,104,VALID,0,VALID,23.0138,VALID,56,VALID,0,
2012-08-24, 02:43:05,VALID,1008.77,VALID,0,VALID,104,VALID,0,VALID,23.0121,VALID,56,VALID,0,
2012-08-24, 02:44:05,VALID,1008.77,VALID,0,VALID,104,VALID,0,VALID,23.0528,VALID,56,VALID,0,
2012-08-24, 02:45:05,VALID,1008.81,VALID,0,VALID,104,VALID,0,VALID,23.0528,VALID,56,VALID,0,
2012-08-24, 02:46:05,VALID,1008.8,VALID,0,VALID,104,VALID,0.112112,VALID,23.0511,VALID,56,VALID,0,
2012-08-24, 02:47:05,VALID,1008.84,VALID,0,VALID,104,VALID,0,VALID,23.0121,VALID,56,VALID,0,
2012-08-24, 02:48:05,VALID,1008.82,VALID,0,VALID,104,VALID,0,VALID,23.0121,VALID,56,VALID,0,
2012-08-24, 02:49:05,VALID,1008.83,VALID,0,VALID,104,VALID,0,VALID,23.0121,VALID,56,VALID,0,
2012-08-24, 02:50:05,VALID,1008.89,VALID,0,VALID,104,VALID,0,VALID,22.9909,VALID,56,VALID,0,
2012-08-24, 02:51:05,VALID,1008.91,VALID,0,VALID,104,VALID,0,VALID,22.9731,VALID,56,VALID,0,
2012-08-24, 02:52:05,VALID,1008.93,VALID,0,VALID,104,VALID,0.112112,VALID,22.9519,VALID,56,VALID,0,
2012-08-24, 02:53:05,VALID,1009.01,VALID,0,VALID,104,VALID,0,VALID,22.9731,VALID,56,VALID,0,
2012-08-24, 02:54:05,VALID,1009,VALID,0,VALID,104,VALID,0,VALID,22.9324,VALID,56,VALID,0,
2012-08-24, 02:55:05,VALID,1009.05,VALID,0,VALID,104,VALID,0.112112,VALID,22.9324,VALID,56,VALID,0,
2012-08-24, 02:56:05,VALID,1009.08,VALID,0,VALID,104,VALID,0,VALID,22.874,VALID,56,VALID,0,
2012-08-24, 02:57:05,VALID,1009.08,VALID,0,VALID,104,VALID,0.112112,VALID,22.874,VALID,56,VALID,0,
2012-08-24, 02:58:05,VALID,1009.09,VALID,0,VALID,104,VALID,0,VALID,22.8757,VALID,56,VALID,0,
2012-08-24, 02:59:05,VALID,1009.08,VALID,0,VALID,104,VALID,0.112112,VALID,22.8952,VALID,56,VALID,0,
2012-08-24, 03:00:05,VALID,1009.11,VALID,0,VALID,104,VALID,0.112112,VALID,22.8545,VALID,56,VALID,0,
2012-08-24, 03:01:05,VALID,1009.09,VALID,0,VALID,104,VALID,0.112112,VALID,22.8368,VALID,56,VALID,0,
2012-08-24, 03:02:05,VALID,1009.1,VALID,0,VALID,104,VALID,0.112112,VALID,22.7766,VALID,56,VALID,0,
2012-08-24, 03:03:05,VALID,1009.08,VALID,0,VALID,104,VALID,0,VALID,22.7376,VALID,56,VALID,0,
2012-08-24, 03:04:05,VALID,1009.06,VALID,0,VALID,104,VALID,0.112112,VALID,22.7394,VALID,56,VALID,0,
2012-08-24, 03:05:05,VALID,1009.08,VALID,0,VALID,104,VALID,0,VALID,22.7394,VALID,56,VALID,0,
2012-08-24, 03:06:05,VALID,1009.07,VALID,0,VALID,104,VALID,0.112112,VALID,22.7376,VALID,56,VALID,0,
2012-08-24, 03:07:05,VALID,1009.05,VALID,0,VALID,104,VALID,0,VALID,22.8368,VALID,56,VALID,0,
2012-08-24, 03:08:05,VALID,1009.03,VALID,0,VALID,104,VALID,0,VALID,22.8155,VALID,56,VALID,0,
2012-08-24, 03:09:05,VALID,1009.03,VALID,0,VALID,104,VALID,0,VALID,22.835,VALID,56,VALID,0,
2012-08-24, 03:10:05,VALID,1009,VALID,0,VALID,104,VALID,0,VALID,22.8173,VALID,56,VALID,0,
2012-08-24, 03:11:05,VALID,1009.03,VALID,0,VALID,104,VALID,0,VALID,22.7961,VALID,56,VALID,0,
2012-08-24, 03:12:05,VALID,1009.04,VALID,0,VALID,104,VALID,0,VALID,22.8562,VALID,56,VALID,0,
2012-08-24, 03:13:05,VALID,1009.04,VALID,0,VALID,104,VALID,0,VALID,22.8368,VALID,56,VALID,0,
2012-08-24, 03:14:05,VALID,1009.08,VALID,0,VALID,104,VALID,0,VALID,22.8173,VALID,56,VALID,0,
2012-08-24, 03:15:05,VALID,1009.09,VALID,0,VALID,104,VALID,0,VALID,22.8173,VALID,56,VALID,0,
2012-08-24, 03:16:05,VALID,1009.1,VALID,0,VALID,104,VALID,0,VALID,22.8173,VALID,56,VALID,0,
2012-08-24, 03:17:05,VALID,1009.12,VALID,0,VALID,104,VALID,0,VALID,22.8173,VALID,56,VALID,0,
2012-08-24, 03:18:05,VALID,1009.12,VALID,0,VALID,104,VALID,0,VALID,22.8173,VALID,56,VALID,0,
2012-08-24, 03:19:05,VALID,1009.12,VALID,0,VALID,104,VALID,0,VALID,22.7961,VALID,56,VALID,0,
2012-08-24, 03:20:05,VALID,1009.14,VALID,0,VALID,104,VALID,0,VALID,22.8368,VALID,56,VALID,0,
2012-08-24, 03:21:05,VALID,1009.13,VALID,0,VALID,104,VALID,0.112112,VALID,22.835,VALID,56,VALID,0,
2012-08-24, 03:22:05,VALID,1009.14,VALID,0,VALID,104,VALID,0,VALID,22.835,VALID,56,VALID,0,
2012-08-24, 03:23:05,VALID,1009.13,VALID,0,VALID,104,VALID,0.112112,VALID,22.8757,VALID,56,VALID,0,
2012-08-24, 03:24:05,VALID,1009.13,VALID,0,VALID,104,VALID,0.112112,VALID,22.8757,VALID,56,VALID,0,
2012-08-24, 03:25:05,VALID,1009.11,VALID,0,VALID,104,VALID,0,VALID,22.8952,VALID,56,VALID,0,
2012-08-24, 03:26:05,VALID,1009.12,VALID,0,VALID,104,VALID,0.112112,VALID,22.8935,VALID,56,VALID,0,
2012-08-24, 03:27:05,VALID,1009.14,VALID,0,VALID,104,VALID,0,VALID,22.9342,VALID,56,VALID,0,
2012-08-24, 03:28:05,VALID,1009.16,VALID,0,VALID,104,VALID,0.112112,VALID,22.9342,VALID,56,VALID,0,
2012-08-24, 03:29:05,VALID,1009.18,VALID,0,VALID,104,VALID,0,VALID,22.9129,VALID,56,VALID,0,
2012-08-24, 03:30:05,VALID,1009.2,VALID,0,VALID,104,VALID,0.112112,VALID,22.9129,VALID,56,VALID,0,
2012-08-24, 03:31:05,VALID,1009.21,VALID,0,VALID,104,VALID,0.112112,VALID,22.9342,VALID,56,VALID,0,
2012-08-24, 03:32:05,VALID,1009.23,VALID,0,VALID,104,VALID,0,VALID,22.9129,VALID,56,VALID,0,
2012-08-24, 03:33:05,VALID,1009.22,VALID,0,VALID,104,VALID,0,VALID,22.9342,VALID,56,VALID,0,
2012-08-24, 03:34:05,VALID,1009.22,VALID,0,VALID,104,VALID,0,VALID,22.9536,VALID,56,VALID,0,
2012-08-24, 03:35:05,VALID,1009.25,VALID,0,VALID,104,VALID,0,VALID,22.9536,VALID,56,VALID,0,
2012-08-24, 03:36:05,VALID,1009.23,VALID,0,VALID,104,VALID,0,VALID,22.9536,VALID,56,VALID,0,
2012-08-24, 03:37:05,VALID,1009.23,VALID,0,VALID,104,VALID,0,VALID,22.9342,VALID,56,VALID,0,
2012-08-24, 03:38:05,VALID,1009.23,VALID,0,VALID,104,VALID,0,VALID,22.9342,VALID,56,VALID,0,
2012-08-24, 03:39:05,VALID,1009.23,VALID,0,VALID,104,VALID,0,VALID,22.9536,VALID,56,VALID,0,
2012-08-24, 03:40:05,VALID,1009.24,VALID,0,VALID,104,VALID,0,VALID,22.9536,VALID,56,VALID,0,
2012-08-24, 03:41:05,VALID,1009.21,VALID,0,VALID,104,VALID,0,VALID,22.9129,VALID,56,VALID,0,
2012-08-24, 03:42:05,VALID,1009.23,VALID,0,VALID,104,VALID,0,VALID,22.9342,VALID,56,VALID,0,
2012-08-24, 03:43:05,VALID,1009.21,VALID,0,VALID,104,VALID,0,VALID,22.9342,VALID,56,VALID,0,
2012-08-24, 03:44:05,VALID,1009.19,VALID,0,VALID,104,VALID,0,VALID,22.8935,VALID,56,VALID,0,
2012-08-24, 03:45:05,VALID,1009.22,VALID,0,VALID,104,VALID,0,VALID,22.9147,VALID,56,VALID,0,
2012-08-24, 03:46:05,VALID,1009.22,VALID,0,VALID,104,VALID,0,VALID,22.8952,VALID,56,VALID,0,
2012-08-24, 03:47:05,VALID,1009.27,VALID,0,VALID,104,VALID,0,VALID,22.8952,VALID,56,VALID,0,
2012-08-24, 03:48:05,VALID,1009.29,VALID,0,VALID,104,VALID,0,VALID,22.8952,VALID,56,VALID,0,
2012-08-24, 03:49:05,VALID,1009.3,VALID,0,VALID,104,VALID,0,VALID,22.8545,VALID,56,VALID,0,
2012-08-24, 03:50:05,VALID,1009.31,VALID,0,VALID,104,VALID,0.112112,VALID,22.835,VALID,56,VALID,0,
2012-08-24, 03:51:05,VALID,1009.33,VALID,0,VALID,104,VALID,0,VALID,22.8757,VALID,56,VALID,0,
2012-08-24, 03:52:05,VALID,1009.3,VALID,0,VALID,104,VALID,0,VALID,22.8562,VALID,56,VALID,0,
2012-08-24, 03:53:05,VALID,1009.29,VALID,0,VALID,104,VALID,0,VALID,22.8562,VALID,56,VALID,0,
2012-08-24, 03:54:05,VALID,1009.3,VALID,0,VALID,104,VALID,0,VALID,22.8155,VALID,56,VALID,0,
2012-08-24, 03:55:05,VALID,1009.28,VALID,0,VALID,104,VALID,0,VALID,22.8368,VALID,56,VALID,0,
2012-08-24, 03:56:05,VALID,1009.3,VALID,0,VALID,104,VALID,0,VALID,22.8368,VALID,56,VALID,0,
2012-08-24, 03:57:05,VALID,1009.32,VALID,0,VALID,104,VALID,0,VALID,22.8173,VALID,56,VALID,0,
2012-08-24, 03:58:05,VALID,1009.34,VALID,0,VALID,104,VALID,0,VALID,22.8368,VALID,56,VALID,0,
2012-08-24, 03:59:05,VALID,1009.35,VALID,0,VALID,104,VALID,0,VALID,22.7961,VALID,56,VALID,0,
2012-08-24, 04:00:05,VALID,1009.4,VALID,0,VALID,104,VALID,0,VALID,22.8173,VALID,56,VALID,0,
2012-08-24, 04:01:05,VALID,1009.39,VALID,0,VALID,104,VALID,0,VALID,22.7978,VALID,56,VALID,0,
2012-08-24, 04:02:05,VALID,1009.42,VALID,0,VALID,104,VALID,0,VALID,22.8173,VALID,56,VALID,0,
2012-08-24, 04:03:05,VALID,1009.43,VALID,0,VALID,104,VALID,0.112112,VALID,22.7978,VALID,56,VALID,0,
2012-08-24, 04:04:05,VALID,1009.42,VALID,0,VALID,104,VALID,0,VALID,22.7783,VALID,56,VALID,0,
2012-08-24, 04:05:05,VALID,1009.44,VALID,0,VALID,104,VALID,0.112112,VALID,22.7766,VALID,56,VALID,0,
2012-08-24, 04:06:05,VALID,1009.48,VALID,0,VALID,104,VALID,0.112112,VALID,22.7766,VALID,56,VALID,0,
2012-08-24, 04:07:05,VALID,1009.52,VALID,0,VALID,104,VALID,0,VALID,22.7978,VALID,56,VALID,0,
2012-08-24, 04:08:05,VALID,1009.53,VALID,0,VALID,104,VALID,0,VALID,22.7961,VALID,56,VALID,0,